Flag for U.S.A. Weather past 2 weeks in Detroit, Michigan, U.S.A.

Now
90 °F

Passing clouds.


Feels Like: 95 °F
Forecast: 70 / 87 °F
Wind: 10 mph from West

Location: Detroit City Airport

Current Time: Sep 2, 2015 at 6:12:20 PM

Latest Report: Sep 2, 2015 at 4:53 PM


Visibility: 10 mi

Pressure: 29.94 "Hg

Humidity: 52%

Dew point: 70 °F

Location of DetroitLocation

Historic Weather in Detroit — Graph

°F

Detroit temperature yesterday

Maximum temperature yesterday: 88 °F (at 3:53 PM)
Minimum temperature yesterday: 66 °F (at 6:53 AM)
Average temperature yesterday: 77 °F

Past Weeks' High & Low Weather Summary

 TemperatureHumidityPressure
High90 °F (Sep 2, 4:53 PM)93% (Aug 20, 1:53 AM)30.22 "Hg (Aug 20, 1:53 AM)
Low52 °F (Aug 28, 6:53 AM)33% (Aug 21, 6:53 PM)29.68 "Hg (Aug 20, 3:04 AM)
Average70 °F69%30.01 "Hg
* Reported Aug 18 4:53 PM — Sep 2 4:53 PM, Detroit, Weather by CustomWeather, © 2015

Note: Actual official high and low records may vary slightly from our data, if they occured in-between our weather recording intervals... More about our weather records

Advertising

Detroit weather history for previous 24 hours

 ConditionsComfort  
Time TempWeatherWind HumidityBarometerVisibility
4:53 PM
Wed, Sep 2
90 °FPassing clouds.10 mph52%29.94 "Hg10 mi
3:53 PM89 °FPassing clouds.10 mph53%29.96 "Hg10 mi
2:53 PM89 °FSunny.13 mph55%29.99 "Hg10 mi
1:53 PM86 °FSunny.9 mph61%29.98 "Hg10 mi
12:53 PM85 °FSunny.13 mph63%30.00 "Hg10 mi
11:53 AM83 °FPassing clouds.8 mph65%30.03 "Hg10 mi
10:53 AM81 °FSunny.6 mph69%30.03 "Hg10 mi
9:53 AM78 °FSunny.8 mph76%30.04 "Hg9 mi
8:53 AM75 °FSunny.7 mph82%30.05 "Hg6 mi
7:53 AM73 °FFog.No wind88%30.04 "Hg5 mi
6:53 AM72 °FClear.No wind87%30.03 "Hg7 mi
5:53 AM73 °FPassing clouds.5 mph84%30.03 "Hg8 mi
4:53 AM74 °FPassing clouds.5 mph82%30.03 "Hg8 mi
3:53 AM74 °FClear.5 mph82%30.03 "Hg9 mi
2:53 AM75 °FClear.5 mph79%30.03 "Hg9 mi
1:53 AM75 °FClear.3 mph79%30.04 "Hg10 mi
12:53 AM77 °FClear.5 mph77%30.04 "Hg9 mi
11:53 PM
Tue, Sep 1
76 °FClear.3 mph80%30.04 "Hg9 mi
10:53 PM78 °FPassing clouds.5 mph74%30.04 "Hg10 mi
9:53 PM79 °FClear.6 mph72%30.04 "Hg10 mi
8:53 PM80 °FSunny.6 mph71%30.03 "Hg10 mi
7:53 PM83 °FSunny.7 mph63%30.01 "Hg10 mi
6:53 PM85 °FSunny.12 mph57%30.01 "Hg10 mi
Weather by CustomWeather, © 2015

See weather overviewHow to use our weather pages